Miscellaneous Local Product
Issued by NWS North Platte, NE

Home | Current Version | Previous Version | Text Only | Print | Product List | Glossary On
Versions: 1 2 3 4 5 6 7 8 9 10 11 12 13 14 15 16 17 18 19 20 21 22 23 24 25 26 27 28 29 30 31 32 33 34 35 36 37 38 39 40 41 42 43 44 45 46 47 48 49 50
140
AXUS43 KLBF 311610
MISLBF


WESTERN AND NORTH CENTRAL NEBRASKA HOURLY WEATHER ROUNDUP
NATIONAL WEATHER SERVICE NORTH PLATTE NE
1100 AM CDT TUE MAY 31 2016

NOTE: "FAIR" INDICATES FEW OR NO CLOUDS BELOW 12,000 FEET WITH NO
SIGNIFICANT WEATHER AND/OR OBSTRUCTIONS TO VISIBILITY.

NOTE: STATIONS NOT REPORTING VARIABLES SUCH AS SKY/WEATHER OR
PRESSURE ARE PROVIDED BY RAWS AND APRS NETWORKS AND ARE NOT UNDER
NATIONAL WEATHER SERVICE QUALITY CONTROL.

...OBSERVATIONS IN AND NEAR THE EASTERN PANHANDLE OF NEBRASKA...

CITY           SKY/WX    TMP DP  RH WIND       PRES   REMARKS
PINE RIDGE     MOSUNNY   61  36  39 W28G37    30.03F
CHADRON        PTSUNNY   63  32  31 W24G32    30.05F
ALLIANCE       CLOUDY    57  41  55 W7        30.09F
SIDNEY         CLOUDY    51  42  71 NW6       30.14F
BIG SPRINGS      N/A     54  49  82 NW3         N/A
$$

...OBSERVATIONS IN NORTHERN NEBRASKA AND FAR SOUTHERN SOUTH DAKOTA...

CITY           SKY/WX    TMP DP  RH WIND       PRES   REMARKS
WINNER         FAIR      65  43  44 W13       29.95F
VALENTINE      CLOUDY    63  41  44 W21       29.99F
THEDFORD       CLOUDY    58  43  58 SW7       30.07S
AINSWORTH      CLOUDY    58  43  57 SW5       30.02F
O`NEILL        PTSUNNY   65  44  45 NW9       30.01S
ORD            SUNNY     65  42  43 N14       30.02S
BROKEN BOW     CLOUDY    62  44  51 N12       30.05R
BUTTE            N/A     62  46  56 NW12G20     N/A
CHAMBERS         N/A     71  43  37 N3          N/A
EWING            N/A     65  50  58 N10         N/A
$$

...OBSERVATIONS IN SOUTHWEST NEBRASKA AND FAR NORTHEAST COLORADO...

CITY           SKY/WX    TMP DP  RH WIND       PRES   REMARKS
WRAY           CLOUDY    61  41  48 NE10G17   30.13F
HOLYOKE        FAIR      59  46  63 N7        30.13S
IMPERIAL       CLOUDY    58  43  57 N13       30.11F
OGALLALA       CLOUDY    55  49  80 CALM      30.11S
NORTH PLATTE   PTSUNNY   60  43  53 NW8       30.10S
MCCOOK         MOSUNNY   64  48  56 N12       30.08F
LEXINGTON      MOSUNNY   63  48  57 N15       30.07S
PAXTON           N/A     57  49  75 W5          N/A
STAPLETON        N/A     58  47  66 CALM        N/A
GOTHENBURG       N/A     60  40  47 NW7         N/A
CALLAWAY         N/A     57  44  63 N9          N/A
$$

...OBSERVATIONS IN CENTRAL LINCOLN COUNTY AREA...

CITY           SKY/WX    TMP DP  RH WIND       PRES   REMARKS
N.P. AIRPORT   PTSUNNY   60  43  53 NW8       30.10S
N.P. DOWNTOWN    N/A     60  43  54 CALM        N/A
N.P. HILLCREST   N/A     60  42  52 NW6G13      N/A
$$

...SOME OBSERVATIONS FROM AROUND THE REGION...

CITY           SKY/WX    TMP DP  RH WIND       PRES   REMARKS
DENVER         CLOUDY    52  44  74 CALM      30.15F
LARAMIE        MOSUNNY   52  39  61 CALM      30.16S
CHEYENNE       MOSUNNY   53  34  48 SW7       30.15F
SCOTTSBLUFF    CLOUDY    57  44  62 W9        30.13S
RAPID CITY     PTSUNNY   61  34  36 W23G30    29.96F
BISMARCK       CLOUDY    57  47  69 W15G24    29.73F
PIERRE         SUNNY     65  43  44 W24G30    29.88F
SIOUX FALLS    MOSUNNY   65  52  62 NW13      29.93S
OMAHA          CLOUDY    67  60  78 NW14      29.93S
GRAND ISLAND   PTSUNNY   65  51  60 N15       30.02F
KANSAS CITY    CLOUDY    69  63  81 SW6       29.97S
WICHITA        CLOUDY    70  61  73 CALM      29.93F
OKLAHOMA CITY  CLOUDY    74  65  73 E13       29.91F
DALLAS         CLOUDY    81  71  71 SW9       29.90F
AMARILLO       CLOUDY    66  54  65 E10       30.05S
DODGE CITY     PTSUNNY   67  59  75 N15       29.99F
HAYS           CLOUDY    66  54  63 N14       30.00R
GOODLAND       SUNNY     61  47  59 N13       30.09F
$$




USA.gov is the U.S. government's official web portal to all federal, state and local government web resources and services.